Location: Borovka
(49.7741°N, 14.5280°E)
Time: 02:22:36
(UTC+00:00)

BlueWalker 3 - Pass Details

Date: 26 January 2026
Orbit: 451 x 461 km, 53.2° (Epoch: 13 February)

Event Time Altitude Azimuth Distance (km) Brightness Sun altitude
Rises 17:38:20 0° 256° (WSW) 2,454 7.2 -17.9°
Reaches altitude 10° 17:40:28 10° 259° (W) 1,582 5.7 -18.2°
Maximum altitude 17:44:01 66° 343° (NNW) 497 1.8 -18.8°
Enters shadow 17:44:38 53° 36° (NE) 562 1.8 -18.9°
